Zurück zum Katalog

STARLINK-37415

AktivKommunikationVLEO
NORAD 100035·PAYLOAD·🇺🇸 United States

Gestartet Jul 14, 2026 von Cape Canaveral Space Force Station

Loading…

Nächste Überflüge (nächste 24 Stunden)

TLE

AktuellSource: Space-Track

Epoche: Sep 14, 2026, 17:57 UTC

1 A0035U 26161H   26257.74847082  .00024752  00000-0  74152-3 0  9998
2 A0035  53.1599  24.8837 0001157  85.2476 274.8659 15.34389704  9723

Verfolge STARLINK-37415 in Echtzeit mit AllMySat

Download on the App Store